Weather History for Calgary Springbank, AB

Change the Weather History Date:

Sunday, June 2, 2013

  Actual Average Record
Temperature  
Mean Temperature 45 °F -  
Max Temperature 50 °F 62 °F 78 °F (2007)
Min Temperature 40 °F 40 °F 32 °F (1998)
Degree Days  
Heating Degree Days 20    
Moisture  
Dew Point 43 °F    
Average Humidity 90    
Maximum Humidity 100    
Minimum Humidity 75    
Precipitation  
Precipitation 0.24 in - - ()
Sea Level Pressure  
Sea Level Pressure 30.06 in    
Wind  
Wind Speed 8 mph ()    
Max Wind Speed 17 mph    
Max Gust Speed -    
Visibility 10.7 miles    
Events Rain    
Averages and records for this station are not official NWS values.
T = Trace of Precipitation, MM = Missing Value Source: Averaged Metar Reports

Daily Weather History Graph

Daily Weather History Graph

Search for Another Location

Airport:

Trip Planner

Search our weather history database for the weather conditions in past years. The results will help you decide how hot, cold, wet, or windy it might be!

Date:

Astronomy

Jun. 02, 2013 Rise Set
Actual Time 5:27 AM MDT 9:44 PM MDT
Civil Twilight 4:42 AM MDT 10:29 PM MDT
Nautical Twilight 3:36 AM MDT 11:36 PM MDT
Astronomical Twilight 2:07 AM MDT 1:03 AM MDT
Moon 2:32 AM MDT 3:46 PM MDT
Length of Visible Light 17h 47m
Length of Day
16h 17m
Waning Crescent, 30% of the Moon is Illuminated
Jun 2
Waning Crescent
Jun 8
New
Jun 16
First Quarter
Jun 23
Full
Jun 29
Last Quarter

Hourly Weather History & Observations

Time (MDT) Temp. Windchill Dew Point Humidity Pressure Visibility Wind Dir Wind Speed Gust Speed Precip Events Conditions
5:00 AM 41.0 °F 34.7 °F 37.4 °F 87% 30.05 in 20.0 mi NW 10.4 mph - N/A   Mostly Cloudy
5:37 AM 42.8 °F 38.0 °F 39.2 °F 87% 30.05 in 15.0 mi WNW 8.1 mph - N/A Rain Light Rain Showers
6:00 AM 42 °F - 39 °F 86% 30.04 in 15 mi NW 9.2 mph - - Rain Light Rain Showers
6:00 AM 42.8 °F 37.0 °F 39.2 °F 87% 30.04 in 15.0 mi NNW 10.4 mph - N/A Rain Light Rain Showers
7:00 AM 41.0 °F 36.4 °F 41.0 °F 100% 30.06 in 10.0 mi NNW 6.9 mph - N/A Rain Light Rain Showers
8:00 AM 42.8 °F 38.6 °F 42.8 °F 100% 30.06 in 10.0 mi NNW 6.9 mph - N/A Rain Light Rain Showers
9:00 AM 44.6 °F 40.2 °F 42.8 °F 93% 30.06 in 10.0 mi NW 8.1 mph - N/A Rain Light Rain Showers
10:00 AM 48.2 °F - 44.6 °F 87% 30.05 in 15.0 mi NNW 6.9 mph - N/A   Mostly Cloudy
11:00 AM 48.2 °F - 44.6 °F 87% 30.06 in 15.0 mi ENE 11.5 mph - N/A Rain Light Rain Showers
11:33 AM 48.2 °F - 44.6 °F 87% 30.06 in 15.0 mi ENE 10.4 mph - N/A   Overcast
12:00 PM 50 °F - 45 °F 75% 30.05 in 12 mi NE 10.4 mph - - Rain Light Rain Showers
12:00 PM 50.0 °F - 44.6 °F 82% 30.05 in 12.0 mi NE 11.5 mph - N/A Rain Light Rain Showers
1:00 PM 48.2 °F - 44.6 °F 87% 30.06 in 15.0 mi NE 5.8 mph - N/A   Overcast
1:24 PM 48.2 °F - 46.4 °F 93% 30.06 in 6.0 mi NE 10.4 mph - N/A Rain Light Rain Showers
2:00 PM 48.2 °F - 44.6 °F 87% 30.05 in 10.0 mi North 9.2 mph - N/A Rain Light Rain Showers
3:00 PM 48.2 °F - 44.6 °F 87% 30.05 in 12.0 mi North 10.4 mph - N/A   Overcast
3:51 PM 48.2 °F - 44.6 °F 87% 30.06 in 6.0 mi North 8.1 mph - N/A Rain Light Rain
4:00 PM 48.2 °F - 44.6 °F 87% 30.06 in 6.0 mi NNW 5.8 mph - N/A Rain Light Rain
5:00 PM 46.4 °F 39.5 °F 44.6 °F 93% 30.06 in 6.0 mi NW 17.3 mph - N/A Rain Light Rain
5:03 PM 46.4 °F 40.1 °F 44.6 °F 93% 30.06 in 3.0 mi NW 15.0 mph - N/A Rain Light Rain
5:48 PM 46.4 °F 42.4 °F 44.6 °F 93% 30.07 in 8.0 mi NW 8.1 mph - N/A Rain Light Rain
6:00 PM 46 °F - 45 °F 94% 30.07 in 7 mi NW 9.2 mph - - Rain Light Rain
6:00 PM 46.4 °F 41.5 °F 44.6 °F 93% 30.07 in 8.0 mi WNW 10.4 mph - N/A Rain Light Rain
7:00 PM 46.4 °F 41.5 °F 44.6 °F 93% 30.07 in 10.0 mi NW 10.4 mph - N/A   Overcast
8:00 PM 46.4 °F 41.9 °F 44.6 °F 93% 30.07 in 12.0 mi WNW 9.2 mph - N/A   Overcast
9:00 PM 44.6 °F 39.7 °F 44.6 °F 100% 30.07 in 8.0 mi WNW 9.2 mph - N/A Rain Light Rain
10:00 PM 44.6 °F 39.2 °F 42.8 °F 93% 29.99 in 8.0 mi WNW 10.4 mph - N/A Rain Light Rain